owner,sensor,date,latitude,longitude,air_temperature,qcFlag 
TCOON,ioos:station:TCOON:003:1,2014-03-01T00:00:00Z,26.8015,-97.4706,21.8,1111122 
TCOON,ioos:station:TCOON:003:1,2014-03-01T00:42:00Z,26.8015,-97.4706,20.9,1111122 
TCOON,ioos:station:TCOON:003:1,2014-03-01T01:00:00Z,26.8015,-97.4706,21.0,1111122 
TCOON,ioos:station:TCOON:003:1,2014-03-01T01:36:00Z,26.8015,-97.4706,20.6,1111122 
TCOON,ioos:station:TCOON:003:1,2014-03-01T02:00:00Z,26.8015,-97.4706,20.4,1111122 
TCOON,ioos:station:TCOON:003:1,2014-03-01T02:42:00Z,26.8015,-97.4706,20.1,1111122 
TCOON,ioos:station:TCOON:003:1,2014-03-01T03:42:00Z,26.8015,-97.4706,19.4,1111122 
TCOON,ioos:station:TCOON:003:1,2014-03-01T04:00:00Z,26.8015,-97.4706,19.5,1111122 
TCOON,ioos:station:TCOON:003:1,2014-03-01T04:42:00Z,26.8015,-97.4706,19.6,1111122 
TCOON,ioos:station:TCOON:003:1,2014-03-01T05:00:00Z,26.8015,-97.4706,19.7,1111122 
TCOON,ioos:station:TCOON:003:1,2014-03-01T05:42:00Z,26.8015,-97.4706,19.2,1111122 
TCOON,ioos:station:TCOON:003:1,2014-03-01T05:54:00Z,26.8015,-97.4706,19.1,1111122 
TCOON,ioos:station:TCOON:003:1,2014-03-01T06:42:00Z,26.8015,-97.4706,19.5,1111122 
TCOON,ioos:station:TCOON:003:1,2014-03-01T07:00:00Z,26.8015,-97.4706,19.5,1111122 
TCOON,ioos:station:TCOON:003:1,2014-03-01T07:42:00Z,26.8015,-97.4706,19.4,1111122 
TCOON,ioos:station:TCOON:003:1,2014-03-01T08:00:00Z,26.8015,-97.4706,19.3,1111122 
TCOON,ioos:station:TCOON:003:1,2014-03-01T08:42:00Z,26.8015,-97.4706,19.3,1111122 
TCOON,ioos:station:TCOON:003:1,2014-03-01T09:00:00Z,26.8015,-97.4706,19.1,1111122 
TCOON,ioos:station:TCOON:003:1,2014-03-01T09:42:00Z,26.8015,-97.4706,18.9,1111122 
TCOON,ioos:station:TCOON:003:1,2014-03-01T10:00:00Z,26.8015,-97.4706,18.8,1111122 
TCOON,ioos:station:TCOON:003:1,2014-03-01T10:42:00Z,26.8015,-97.4706,18.7,1111122 
TCOON,ioos:station:TCOON:003:1,2014-03-01T11:00:00Z,26.8015,-97.4706,18.6,1111122 
TCOON,ioos:station:TCOON:003:1,2014-03-01T11:54:00Z,26.8015,-97.4706,18.5,1111122 
TCOON,ioos:station:TCOON:003:1,2014-03-01T12:00:00Z,26.8015,-97.4706,18.6,1111122 
TCOON,ioos:station:TCOON:003:1,2014-03-01T12:42:00Z,26.8015,-97.4706,18.8,1111122 
TCOON,ioos:station:TCOON:003:1,2014-03-01T13:00:00Z,26.8015,-97.4706,18.6,1111122 
TCOON,ioos:station:TCOON:003:1,2014-03-01T13:42:00Z,26.8015,-97.4706,18.2,1111122 
TCOON,ioos:station:TCOON:003:1,2014-03-01T14:00:00Z,26.8015,-97.4706,18.2,1111122 
TCOON,ioos:station:TCOON:003:1,2014-03-01T14:42:00Z,26.8015,-97.4706,18.6,1111122 
TCOON,ioos:station:TCOON:003:1,2014-03-01T15:00:00Z,26.8015,-97.4706,18.5,1111122 
TCOON,ioos:station:TCOON:003:1,2014-03-01T15:42:00Z,26.8015,-97.4706,18.5,1111122 
TCOON,ioos:station:TCOON:003:1,2014-03-01T16:00:00Z,26.8015,-97.4706,18.9,1111122 
TCOON,ioos:station:TCOON:003:1,2014-03-01T16:36:00Z,26.8015,-97.4706,19.3,1111122 
TCOON,ioos:station:TCOON:003:1,2014-03-01T17:06:00Z,26.8015,-97.4706,20.5,1111122 
TCOON,ioos:station:TCOON:003:1,2014-03-01T17:42:00Z,26.8015,-97.4706,22.2,1111122 
TCOON,ioos:station:TCOON:003:1,2014-03-01T18:00:00Z,26.8015,-97.4706,22.4,1111122 
TCOON,ioos:station:TCOON:003:1,2014-03-01T18:42:00Z,26.8015,-97.4706,22.3,1111122 
TCOON,ioos:station:TCOON:003:1,2014-03-01T19:00:00Z,26.8015,-97.4706,21.9,1111122 
TCOON,ioos:station:TCOON:003:1,2014-03-01T19:42:00Z,26.8015,-97.4706,21.2,1111122 
TCOON,ioos:station:TCOON:003:1,2014-03-01T20:00:00Z,26.8015,-97.4706,21.1,1111122 
TCOON,ioos:station:TCOON:003:1,2014-03-01T20:42:00Z,26.8015,-97.4706,21.7,1111122 
TCOON,ioos:station:TCOON:003:1,2014-03-01T21:00:00Z,26.8015,-97.4706,22.0,1111122 
TCOON,ioos:station:TCOON:003:1,2014-03-01T21:42:00Z,26.8015,-97.4706,22.2,1111122 
TCOON,ioos:station:TCOON:003:1,2014-03-01T22:00:00Z,26.8015,-97.4706,22.1,1111122 
TCOON,ioos:station:TCOON:003:1,2014-03-01T22:42:00Z,26.8015,-97.4706,22.2,1111122 
TCOON,ioos:station:TCOON:003:1,2014-03-01T23:00:00Z,26.8015,-97.4706,22.1,1111122 
TCOON,ioos:station:TCOON:003:1,2014-03-01T23:36:00Z,26.8015,-97.4706,21.3,1111122 
TCOON,ioos:station:TCOON:003:1,2014-03-02T00:00:00Z,26.8015,-97.4706,21.2,1111122 
TCOON,ioos:station:TCOON:003:1,2014-03-02T00:42:00Z,26.8015,-97.4706,20.8,1111122 
TCOON,ioos:station:TCOON:003:1,2014-03-02T01:00:00Z,26.8015,-97.4706,20.8,1111122 
TCOON,ioos:station:TCOON:003:1,2014-03-02T01:42:00Z,26.8015,-97.4706,20.7,1111122 
TCOON,ioos:station:TCOON:003:1,2014-03-02T02:00:00Z,26.8015,-97.4706,20.7,1111122 
TCOON,ioos:station:TCOON:003:1,2014-03-02T02:36:00Z,26.8015,-97.4706,20.8,1111122 
TCOON,ioos:station:TCOON:003:1,2014-03-02T03:00:00Z,26.8015,-97.4706,20.8,1111122 
TCOON,ioos:station:TCOON:003:1,2014-03-02T03:42:00Z,26.8015,-97.4706,20.8,1111122 
TCOON,ioos:station:TCOON:003:1,2014-03-02T04:00:00Z,26.8015,-97.4706,20.7,1111122 
TCOON,ioos:station:TCOON:003:1,2014-03-02T04:42:00Z,26.8015,-97.4706,20.6,1111122 
TCOON,ioos:station:TCOON:003:1,2014-03-02T05:00:00Z,26.8015,-97.4706,20.6,1111122 
TCOON,ioos:station:TCOON:003:1,2014-03-02T05:48:00Z,26.8015,-97.4706,20.7,1111122 
TCOON,ioos:station:TCOON:003:1,2014-03-02T05:54:00Z,26.8015,-97.4706,20.7,1111122 
TCOON,ioos:station:TCOON:003:1,2014-03-02T06:42:00Z,26.8015,-97.4706,20.9,1111122 
TCOON,ioos:station:TCOON:003:1,2014-03-02T06:54:00Z,26.8015,-97.4706,21.0,1111122 
TCOON,ioos:station:TCOON:003:1,2014-03-02T07:42:00Z,26.8015,-97.4706,21.1,1111122 
TCOON,ioos:station:TCOON:003:1,2014-03-02T08:00:00Z,26.8015,-97.4706,20.9,1111122 
TCOON,ioos:station:TCOON:003:1,2014-03-02T08:42:00Z,26.8015,-97.4706,20.4,1111122 
TCOON,ioos:station:TCOON:003:1,2014-03-02T09:00:00Z,26.8015,-97.4706,20.5,1111122 
TCOON,ioos:station:TCOON:003:1,2014-03-02T09:42:00Z,26.8015,-97.4706,20.5,1111122 
TCOON,ioos:station:TCOON:003:1,2014-03-02T10:00:00Z,26.8015,-97.4706,20.6,1111122 
TCOON,ioos:station:TCOON:003:1,2014-03-02T10:42:00Z,26.8015,-97.4706,20.7,1111122 
TCOON,ioos:station:TCOON:003:1,2014-03-02T11:00:00Z,26.8015,-97.4706,20.4,1111122 
TCOON,ioos:station:TCOON:003:1,2014-03-02T11:42:00Z,26.8015,-97.4706,20.5,1111122 
TCOON,ioos:station:TCOON:003:1,2014-03-02T12:00:00Z,26.8015,-97.4706,20.5,1111122 
TCOON,ioos:station:TCOON:003:1,2014-03-02T12:42:00Z,26.8015,-97.4706,20.2,1111122 
TCOON,ioos:station:TCOON:003:1,2014-03-02T13:00:00Z,26.8015,-97.4706,20.5,1111122 
TCOON,ioos:station:TCOON:003:1,2014-03-02T13:42:00Z,26.8015,-97.4706,20.6,1111122 
TCOON,ioos:station:TCOON:003:1,2014-03-02T14:00:00Z,26.8015,-97.4706,20.3,1111122 
TCOON,ioos:station:TCOON:003:1,2014-03-02T14:42:00Z,26.8015,-97.4706,20.8,1111122 
TCOON,ioos:station:TCOON:003:1,2014-03-02T15:00:00Z,26.8015,-97.4706,21.0,1111122 
TCOON,ioos:station:TCOON:003:1,2014-03-02T15:36:00Z,26.8015,-97.4706,21.0,1111122 
TCOON,ioos:station:TCOON:003:1,2014-03-02T16:00:00Z,26.8015,-97.4706,21.3,1111122 
TCOON,ioos:station:TCOON:003:1,2014-03-02T16:42:00Z,26.8015,-97.4706,21.9,1111122 
TCOON,ioos:station:TCOON:003:1,2014-03-02T17:00:00Z,26.8015,-97.4706,22.1,1111122 
TCOON,ioos:station:TCOON:003:1,2014-03-02T17:42:00Z,26.8015,-97.4706,22.5,1111122 
TCOON,ioos:station:TCOON:003:1,2014-03-02T18:00:00Z,26.8015,-97.4706,22.6,1111122 
TCOON,ioos:station:TCOON:003:1,2014-03-02T18:42:00Z,26.8015,-97.4706,23.1,1111122 
TCOON,ioos:station:TCOON:003:1,2014-03-02T19:00:00Z,26.8015,-97.4706,23.1,1111122 
TCOON,ioos:station:TCOON:003:1,2014-03-02T19:42:00Z,26.8015,-97.4706,23.6,1111122 
TCOON,ioos:station:TCOON:003:1,2014-03-02T20:00:00Z,26.8015,-97.4706,23.9,1111122 
TCOON,ioos:station:TCOON:003:1,2014-03-02T20:42:00Z,26.8015,-97.4706,24.3,1111122 
TCOON,ioos:station:TCOON:003:1,2014-03-02T21:00:00Z,26.8015,-97.4706,24.5,1111122 
TCOON,ioos:station:TCOON:003:1,2014-03-02T21:42:00Z,26.8015,-97.4706,24.6,1111122 
TCOON,ioos:station:TCOON:003:1,2014-03-02T22:00:00Z,26.8015,-97.4706,24.4,1111122 
TCOON,ioos:station:TCOON:003:1,2014-03-02T22:42:00Z,26.8015,-97.4706,22.8,1111122 
TCOON,ioos:station:TCOON:003:1,2014-03-02T23:00:00Z,26.8015,-97.4706,23.1,1111122 
TCOON,ioos:station:TCOON:003:1,2014-03-02T23:42:00Z,26.8015,-97.4706,22.4,1111122 
TCOON,ioos:station:TCOON:003:1,2014-03-03T00:00:00Z,26.8015,-97.4706,22.3,1111122 
TCOON,ioos:station:TCOON:003:1,2014-03-03T00:42:00Z,26.8015,-97.4706,22.8,1111122 
TCOON,ioos:station:TCOON:003:1,2014-03-03T01:00:00Z,26.8015,-97.4706,23.0,1111122 
TCOON,ioos:station:TCOON:003:1,2014-03-03T01:42:00Z,26.8015,-97.4706,21.7,1111122 
TCOON,ioos:station:TCOON:003:1,2014-03-03T02:00:00Z,26.8015,-97.4706,22.0,1111122 
TCOON,ioos:station:TCOON:003:1,2014-03-03T02:42:00Z,26.8015,-97.4706,21.2,1111122 
TCOON,ioos:station:TCOON:003:1,2014-03-03T03:00:00Z,26.8015,-97.4706,20.9,1111122 
TCOON,ioos:station:TCOON:003:1,2014-03-03T03:42:00Z,26.8015,-97.4706,20.3,1111122 
TCOON,ioos:station:TCOON:003:1,2014-03-03T04:00:00Z,26.8015,-97.4706,17.8,1111122 
TCOON,ioos:station:TCOON:003:1,2014-03-03T04:42:00Z,26.8015,-97.4706,12.0,1111122 
TCOON,ioos:station:TCOON:003:1,2014-03-03T05:00:00Z,26.8015,-97.4706,11.6,1111122 
TCOON,ioos:station:TCOON:003:1,2014-03-03T05:48:00Z,26.8015,-97.4706,10.4,1111122 
TCOON,ioos:station:TCOON:003:1,2014-03-03T06:00:00Z,26.8015,-97.4706,10.1,1111122 
TCOON,ioos:station:TCOON:003:1,2014-03-03T06:42:00Z,26.8015,-97.4706,9.4,1111122 
TCOON,ioos:station:TCOON:003:1,2014-03-03T07:00:00Z,26.8015,-97.4706,8.4,1111122 
TCOON,ioos:station:TCOON:003:1,2014-03-03T07:42:00Z,26.8015,-97.4706,8.0,1111122 
TCOON,ioos:station:TCOON:003:1,2014-03-03T07:54:00Z,26.8015,-97.4706,8.0,1111122 
TCOON,ioos:station:TCOON:003:1,2014-03-03T08:42:00Z,26.8015,-97.4706,7.1,1111122 
TCOON,ioos:station:TCOON:003:1,2014-03-03T09:00:00Z,26.8015,-97.4706,6.9,1111122 
TCOON,ioos:station:TCOON:003:1,2014-03-03T09:42:00Z,26.8015,-97.4706,6.4,1111122 
TCOON,ioos:station:TCOON:003:1,2014-03-03T10:00:00Z,26.8015,-97.4706,5.7,1111122 
TCOON,ioos:station:TCOON:003:1,2014-03-03T10:36:00Z,26.8015,-97.4706,5.4,1111122 
TCOON,ioos:station:TCOON:003:1,2014-03-03T11:00:00Z,26.8015,-97.4706,5.6,1111122 
TCOON,ioos:station:TCOON:003:1,2014-03-03T11:42:00Z,26.8015,-97.4706,4.4,1111122 
TCOON,ioos:station:TCOON:003:1,2014-03-03T12:00:00Z,26.8015,-97.4706,4.3,1111122 
TCOON,ioos:station:TCOON:003:1,2014-03-03T12:42:00Z,26.8015,-97.4706,3.4,1111122 
TCOON,ioos:station:TCOON:003:1,2014-03-03T13:00:00Z,26.8015,-97.4706,3.3,1111122 
TCOON,ioos:station:TCOON:003:1,2014-03-03T13:36:00Z,26.8015,-97.4706,2.5,1111122 
TCOON,ioos:station:TCOON:003:1,2014-03-03T14:00:00Z,26.8015,-97.4706,3.0,1111122 
TCOON,ioos:station:TCOON:003:1,2014-03-03T14:42:00Z,26.8015,-97.4706,2.2,1111122 
TCOON,ioos:station:TCOON:003:1,2014-03-03T15:00:00Z,26.8015,-97.4706,2.3,1111122 
TCOON,ioos:station:TCOON:003:1,2014-03-03T15:42:00Z,26.8015,-97.4706,2.3,1111122 
TCOON,ioos:station:TCOON:003:1,2014-03-03T16:00:00Z,26.8015,-97.4706,2.1,1111122 
TCOON,ioos:station:TCOON:003:1,2014-03-03T16:42:00Z,26.8015,-97.4706,2.2,1111122 
TCOON,ioos:station:TCOON:003:1,2014-03-03T17:00:00Z,26.8015,-97.4706,1.9,1111122 
TCOON,ioos:station:TCOON:003:1,2014-03-03T17:42:00Z,26.8015,-97.4706,2.7,1111122 
TCOON,ioos:station:TCOON:003:1,2014-03-03T18:00:00Z,26.8015,-97.4706,2.4,1111122 
TCOON,ioos:station:TCOON:003:1,2014-03-03T18:42:00Z,26.8015,-97.4706,2.9,1111122 
TCOON,ioos:station:TCOON:003:1,2014-03-03T19:00:00Z,26.8015,-97.4706,3.3,1111122 
TCOON,ioos:station:TCOON:003:1,2014-03-03T19:42:00Z,26.8015,-97.4706,3.5,1111122 
TCOON,ioos:station:TCOON:003:1,2014-03-03T20:00:00Z,26.8015,-97.4706,3.9,1111122 
TCOON,ioos:station:TCOON:003:1,2014-03-03T20:42:00Z,26.8015,-97.4706,4.4,1111122 
TCOON,ioos:station:TCOON:003:1,2014-03-03T21:00:00Z,26.8015,-97.4706,4.3,1111122 
TCOON,ioos:station:TCOON:003:1,2014-03-03T21:42:00Z,26.8015,-97.4706,4.6,1111122 
TCOON,ioos:station:TCOON:003:1,2014-03-03T22:00:00Z,26.8015,-97.4706,4.8,1111122 
TCOON,ioos:station:TCOON:003:1,2014-03-03T22:42:00Z,26.8015,-97.4706,5.1,1111122 
TCOON,ioos:station:TCOON:003:1,2014-03-03T23:00:00Z,26.8015,-97.4706,5.6,1111122 
TCOON,ioos:station:TCOON:003:1,2014-03-03T23:36:00Z,26.8015,-97.4706,5.7,1111122 
TCOON,ioos:station:TCOON:003:1,2014-03-04T00:00:00Z,26.8015,-97.4706,6.2,1111122 
TCOON,ioos:station:TCOON:003:1,2014-03-04T00:42:00Z,26.8015,-97.4706,6.3,1111122 
TCOON,ioos:station:TCOON:003:1,2014-03-04T01:00:00Z,26.8015,-97.4706,6.6,1111122 
TCOON,ioos:station:TCOON:003:1,2014-03-04T01:42:00Z,26.8015,-97.4706,6.6,1111122 
TCOON,ioos:station:TCOON:003:1,2014-03-04T02:00:00Z,26.8015,-97.4706,6.5,1111122 
TCOON,ioos:station:TCOON:003:1,2014-03-04T02:42:00Z,26.8015,-97.4706,6.0,1111122 
TCOON,ioos:station:TCOON:003:1,2014-03-04T03:00:00Z,26.8015,-97.4706,5.7,1111122 
TCOON,ioos:station:TCOON:003:1,2014-03-04T03:42:00Z,26.8015,-97.4706,6.1,1111122 
TCOON,ioos:station:TCOON:003:1,2014-03-04T04:00:00Z,26.8015,-97.4706,6.4,1111122 
TCOON,ioos:station:TCOON:003:1,2014-03-04T04:42:00Z,26.8015,-97.4706,6.5,1111122 
TCOON,ioos:station:TCOON:003:1,2014-03-04T05:00:00Z,26.8015,-97.4706,6.5,1111122 
TCOON,ioos:station:TCOON:003:1,2014-03-04T05:42:00Z,26.8015,-97.4706,6.0,1111122 
TCOON,ioos:station:TCOON:003:1,2014-03-04T05:54:00Z,26.8015,-97.4706,5.5,1111122 
TCOON,ioos:station:TCOON:003:1,2014-03-04T06:42:00Z,26.8015,-97.4706,4.5,1111122 
TCOON,ioos:station:TCOON:003:1,2014-03-04T07:00:00Z,26.8015,-97.4706,4.2,1111122 
TCOON,ioos:station:TCOON:003:1,2014-03-04T07:42:00Z,26.8015,-97.4706,3.7,1111122 
TCOON,ioos:station:TCOON:003:1,2014-03-04T08:00:00Z,26.8015,-97.4706,3.9,1111122 
TCOON,ioos:station:TCOON:003:1,2014-03-04T08:42:00Z,26.8015,-97.4706,3.5,1111122 
TCOON,ioos:station:TCOON:003:1,2014-03-04T09:00:00Z,26.8015,-97.4706,3.7,1111122 
TCOON,ioos:station:TCOON:003:1,2014-03-04T09:42:00Z,26.8015,-97.4706,3.0,1111122 
TCOON,ioos:station:TCOON:003:1,2014-03-04T10:00:00Z,26.8015,-97.4706,3.3,1111122 
TCOON,ioos:station:TCOON:003:1,2014-03-04T10:42:00Z,26.8015,-97.4706,4.1,1111122 
TCOON,ioos:station:TCOON:003:1,2014-03-04T11:00:00Z,26.8015,-97.4706,4.4,1111122 
TCOON,ioos:station:TCOON:003:1,2014-03-04T11:36:00Z,26.8015,-97.4706,4.4,1111122 
TCOON,ioos:station:TCOON:003:1,2014-03-04T12:00:00Z,26.8015,-97.4706,3.7,1111122 
TCOON,ioos:station:TCOON:003:1,2014-03-04T12:42:00Z,26.8015,-97.4706,3.9,1111122 
TCOON,ioos:station:TCOON:003:1,2014-03-04T13:00:00Z,26.8015,-97.4706,3.7,1111122 
TCOON,ioos:station:TCOON:003:1,2014-03-04T13:42:00Z,26.8015,-97.4706,3.5,1111122 
TCOON,ioos:station:TCOON:003:1,2014-03-04T13:54:00Z,26.8015,-97.4706,3.6,1111122 
TCOON,ioos:station:TCOON:003:1,2014-03-04T14:42:00Z,26.8015,-97.4706,3.5,1111122 
TCOON,ioos:station:TCOON:003:1,2014-03-04T15:00:00Z,26.8015,-97.4706,3.3,1111122 
TCOON,ioos:station:TCOON:003:1,2014-03-04T15:42:00Z,26.8015,-97.4706,3.7,1111122 
TCOON,ioos:station:TCOON:003:1,2014-03-04T16:00:00Z,26.8015,-97.4706,3.7,1111122 
TCOON,ioos:station:TCOON:003:1,2014-03-04T16:42:00Z,26.8015,-97.4706,3.4,1111122 
TCOON,ioos:station:TCOON:003:1,2014-03-04T17:00:00Z,26.8015,-97.4706,3.3,1111122 
TCOON,ioos:station:TCOON:003:1,2014-03-04T17:42:00Z,26.8015,-97.4706,3.8,1111122 
TCOON,ioos:station:TCOON:003:1,2014-03-04T18:00:00Z,26.8015,-97.4706,3.8,1111122 
TCOON,ioos:station:TCOON:003:1,2014-03-04T18:42:00Z,26.8015,-97.4706,4.2,1111122 
TCOON,ioos:station:TCOON:003:1,2014-03-04T19:00:00Z,26.8015,-97.4706,4.5,1111122 
TCOON,ioos:station:TCOON:003:1,2014-03-04T19:42:00Z,26.8015,-97.4706,4.3,1111122 
TCOON,ioos:station:TCOON:003:1,2014-03-04T20:00:00Z,26.8015,-97.4706,4.3,1111122 
TCOON,ioos:station:TCOON:003:1,2014-03-04T20:42:00Z,26.8015,-97.4706,4.5,1111122 
TCOON,ioos:station:TCOON:003:1,2014-03-04T21:00:00Z,26.8015,-97.4706,4.6,1111122 
TCOON,ioos:station:TCOON:003:1,2014-03-04T21:42:00Z,26.8015,-97.4706,5.1,1111122 
TCOON,ioos:station:TCOON:003:1,2014-03-04T22:00:00Z,26.8015,-97.4706,5.2,1111122 
TCOON,ioos:station:TCOON:003:1,2014-03-04T22:42:00Z,26.8015,-97.4706,5.4,1111122 
TCOON,ioos:station:TCOON:003:1,2014-03-04T23:00:00Z,26.8015,-97.4706,5.3,1111122 
TCOON,ioos:station:TCOON:003:1,2014-03-04T23:48:00Z,26.8015,-97.4706,5.8,1111122 
TCOON,ioos:station:TCOON:003:1,2014-03-04T23:54:00Z,26.8015,-97.4706,5.7,1111122 
TCOON,ioos:station:TCOON:003:1,2014-03-05T00:42:00Z,26.8015,-97.4706,5.6,1111122 
TCOON,ioos:station:TCOON:003:1,2014-03-06T15:00:00Z,26.8015,-97.4706,12.2,1111122 
TCOON,ioos:station:TCOON:003:1,2014-03-06T15:42:00Z,26.8015,-97.4706,12.7,1111122 
TCOON,ioos:station:TCOON:003:1,2014-03-06T16:42:00Z,26.8015,-97.4706,13.6,1111122 
TCOON,ioos:station:TCOON:003:1,2014-03-06T16:54:00Z,26.8015,-97.4706,13.6,1111122 
TCOON,ioos:station:TCOON:003:1,2014-03-06T17:42:00Z,26.8015,-97.4706,14.4,1111122 
TCOON,ioos:station:TCOON:003:1,2014-03-06T18:00:00Z,26.8015,-97.4706,14.7,1111122 
TCOON,ioos:station:TCOON:003:1,2014-03-06T18:42:00Z,26.8015,-97.4706,14.9,1111122 
TCOON,ioos:station:TCOON:003:1,2014-03-06T19:00:00Z,26.8015,-97.4706,15.0,1111122 
TCOON,ioos:station:TCOON:003:1,2014-03-06T19:42:00Z,26.8015,-97.4706,14.8,1111122 
TCOON,ioos:station:TCOON:003:1,2014-03-06T20:00:00Z,26.8015,-97.4706,14.8,1111122 
TCOON,ioos:station:TCOON:003:1,2014-03-06T20:42:00Z,26.8015,-97.4706,15.1,1111122 
TCOON,ioos:station:TCOON:003:1,2014-03-06T21:00:00Z,26.8015,-97.4706,14.9,1111122 
TCOON,ioos:station:TCOON:003:1,2014-03-06T21:42:00Z,26.8015,-97.4706,15.1,1111122 
TCOON,ioos:station:TCOON:003:1,2014-03-06T22:00:00Z,26.8015,-97.4706,14.9,1111122 
TCOON,ioos:station:TCOON:003:1,2014-03-06T22:42:00Z,26.8015,-97.4706,15.0,1111122 
TCOON,ioos:station:TCOON:003:1,2014-03-06T23:00:00Z,26.8015,-97.4706,14.8,1111122 
TCOON,ioos:station:TCOON:003:1,2014-03-06T23:42:00Z,26.8015,-97.4706,14.7,1111122 
TCOON,ioos:station:TCOON:003:1,2014-03-07T00:00:00Z,26.8015,-97.4706,14.4,1111122 
TCOON,ioos:station:TCOON:003:1,2014-03-07T00:36:00Z,26.8015,-97.4706,14.2,1111122 
TCOON,ioos:station:TCOON:003:1,2014-03-07T01:00:00Z,26.8015,-97.4706,14.1,1111122 
TCOON,ioos:station:TCOON:003:1,2014-03-07T01:36:00Z,26.8015,-97.4706,14.0,1111122 
TCOON,ioos:station:TCOON:003:1,2014-03-07T02:00:00Z,26.8015,-97.4706,14.0,1111122 
TCOON,ioos:station:TCOON:003:1,2014-03-07T02:36:00Z,26.8015,-97.4706,14.0,1111122 
TCOON,ioos:station:TCOON:003:1,2014-03-07T03:00:00Z,26.8015,-97.4706,14.1,1111122 
TCOON,ioos:station:TCOON:003:1,2014-03-07T03:36:00Z,26.8015,-97.4706,14.1,1111122 
TCOON,ioos:station:TCOON:003:1,2014-03-07T04:06:00Z,26.8015,-97.4706,14.2,1111122 
TCOON,ioos:station:TCOON:003:1,2014-03-07T04:42:00Z,26.8015,-97.4706,14.1,1111122 
TCOON,ioos:station:TCOON:003:1,2014-03-07T05:00:00Z,26.8015,-97.4706,14.1,1111122 
TCOON,ioos:station:TCOON:003:1,2014-03-07T05:54:00Z,26.8015,-97.4706,14.1,1111122 
TCOON,ioos:station:TCOON:003:1,2014-03-07T06:36:00Z,26.8015,-97.4706,14.2,1111122 
TCOON,ioos:station:TCOON:003:1,2014-03-07T07:12:00Z,26.8015,-97.4706,14.1,1111122 
TCOON,ioos:station:TCOON:003:1,2014-03-07T07:36:00Z,26.8015,-97.4706,14.0,1111122 
TCOON,ioos:station:TCOON:003:1,2014-03-07T08:00:00Z,26.8015,-97.4706,14.0,1111122 
TCOON,ioos:station:TCOON:003:1,2014-03-07T08:42:00Z,26.8015,-97.4706,14.1,1111122 
TCOON,ioos:station:TCOON:003:1,2014-03-07T09:00:00Z,26.8015,-97.4706,14.1,1111122 
TCOON,ioos:station:TCOON:003:1,2014-03-07T09:54:00Z,26.8015,-97.4706,13.9,1111122 
TCOON,ioos:station:TCOON:003:1,2014-03-07T10:00:00Z,26.8015,-97.4706,13.9,1111122 
TCOON,ioos:station:TCOON:003:1,2014-03-07T10:42:00Z,26.8015,-97.4706,13.7,1111122 
TCOON,ioos:station:TCOON:003:1,2014-03-07T11:00:00Z,26.8015,-97.4706,13.6,1111122 
TCOON,ioos:station:TCOON:003:1,2014-03-07T12:18:00Z,26.8015,-97.4706,10.4,1111122 
TCOON,ioos:station:TCOON:003:1,2014-03-07T12:42:00Z,26.8015,-97.4706,10.5,1111122 
TCOON,ioos:station:TCOON:003:1,2014-03-07T13:00:00Z,26.8015,-97.4706,10.2,1111122 
TCOON,ioos:station:TCOON:003:1,2014-03-07T14:06:00Z,26.8015,-97.4706,12.1,1111122 
TCOON,ioos:station:TCOON:003:1,2014-03-07T14:42:00Z,26.8015,-97.4706,13.4,1111122 
TCOON,ioos:station:TCOON:003:1,2014-03-07T15:00:00Z,26.8015,-97.4706,14.3,1111122 
TCOON,ioos:station:TCOON:003:1,2014-03-07T15:42:00Z,26.8015,-97.4706,16.1,1111122 
TCOON,ioos:station:TCOON:003:1,2014-03-07T16:00:00Z,26.8015,-97.4706,16.7,1111122 
TCOON,ioos:station:TCOON:003:1,2014-03-07T16:42:00Z,26.8015,-97.4706,17.4,1111122 
TCOON,ioos:station:TCOON:003:1,2014-03-07T17:00:00Z,26.8015,-97.4706,17.5,1111122 
TCOON,ioos:station:TCOON:003:1,2014-03-07T17:42:00Z,26.8015,-97.4706,17.6,1111122 
TCOON,ioos:station:TCOON:003:1,2014-03-07T18:00:00Z,26.8015,-97.4706,17.9,1111122 
TCOON,ioos:station:TCOON:003:1,2014-03-07T18:42:00Z,26.8015,-97.4706,18.2,1111122 
TCOON,ioos:station:TCOON:003:1,2014-03-07T19:00:00Z,26.8015,-97.4706,18.2,1111122 
TCOON,ioos:station:TCOON:003:1,2014-03-07T19:42:00Z,26.8015,-97.4706,18.5,1111122 
TCOON,ioos:station:TCOON:003:1,2014-03-07T20:00:00Z,26.8015,-97.4706,18.8,1111122 
TCOON,ioos:station:TCOON:003:1,2014-03-07T20:42:00Z,26.8015,-97.4706,18.7,1111122 
TCOON,ioos:station:TCOON:003:1,2014-03-07T21:00:00Z,26.8015,-97.4706,18.8,1111122 
TCOON,ioos:station:TCOON:003:1,2014-03-07T21:42:00Z,26.8015,-97.4706,19.0,1111122 
TCOON,ioos:station:TCOON:003:1,2014-03-07T22:00:00Z,26.8015,-97.4706,18.9,1111122 
TCOON,ioos:station:TCOON:003:1,2014-03-07T22:42:00Z,26.8015,-97.4706,18.9,1111122 
TCOON,ioos:station:TCOON:003:1,2014-03-07T23:00:00Z,26.8015,-97.4706,18.9,1111122 
TCOON,ioos:station:TCOON:003:1,2014-03-07T23:42:00Z,26.8015,-97.4706,18.7,1111122 
TCOON,ioos:station:TCOON:003:1,2014-03-08T00:00:00Z,26.8015,-97.4706,18.6,1111122 
TCOON,ioos:station:TCOON:003:1,2014-03-08T00:36:00Z,26.8015,-97.4706,18.1,1111122 
TCOON,ioos:station:TCOON:003:1,2014-03-08T01:00:00Z,26.8015,-97.4706,17.9,1111122 
TCOON,ioos:station:TCOON:003:1,2014-03-08T01:42:00Z,26.8015,-97.4706,17.7,1111122 
TCOON,ioos:station:TCOON:003:1,2014-03-08T02:00:00Z,26.8015,-97.4706,18.1,1111122 
TCOON,ioos:station:TCOON:003:1,2014-03-08T02:42:00Z,26.8015,-97.4706,18.0,1111122 
TCOON,ioos:station:TCOON:003:1,2014-03-08T03:00:00Z,26.8015,-97.4706,17.9,1111122 
TCOON,ioos:station:TCOON:003:1,2014-03-08T03:42:00Z,26.8015,-97.4706,17.5,1111122 
TCOON,ioos:station:TCOON:003:1,2014-03-08T04:00:00Z,26.8015,-97.4706,17.8,1111122 
TCOON,ioos:station:TCOON:003:1,2014-03-08T04:42:00Z,26.8015,-97.4706,18.2,1111122 
TCOON,ioos:station:TCOON:003:1,2014-03-08T05:00:00Z,26.8015,-97.4706,18.3,1111122 
TCOON,ioos:station:TCOON:003:1,2014-03-08T05:42:00Z,26.8015,-97.4706,18.0,1111122 
TCOON,ioos:station:TCOON:003:1,2014-03-08T06:00:00Z,26.8015,-97.4706,18.1,1111122 
TCOON,ioos:station:TCOON:003:1,2014-03-08T06:42:00Z,26.8015,-97.4706,17.9,1111122 
TCOON,ioos:station:TCOON:003:1,2014-03-08T07:00:00Z,26.8015,-97.4706,17.7,1111122 
TCOON,ioos:station:TCOON:003:1,2014-03-08T07:42:00Z,26.8015,-97.4706,17.4,1111122 
TCOON,ioos:station:TCOON:003:1,2014-03-08T08:00:00Z,26.8015,-97.4706,17.3,1111122 
TCOON,ioos:station:TCOON:003:1,2014-03-08T08:42:00Z,26.8015,-97.4706,17.5,1111122 
TCOON,ioos:station:TCOON:003:1,2014-03-08T09:00:00Z,26.8015,-97.4706,17.5,1111122 
TCOON,ioos:station:TCOON:003:1,2014-03-08T09:42:00Z,26.8015,-97.4706,17.6,1111122 
TCOON,ioos:station:TCOON:003:1,2014-03-08T10:00:00Z,26.8015,-97.4706,17.6,1111122 
TCOON,ioos:station:TCOON:003:1,2014-03-08T10:42:00Z,26.8015,-97.4706,17.6,1111122 
TCOON,ioos:station:TCOON:003:1,2014-03-08T11:00:00Z,26.8015,-97.4706,17.7,1111122 
TCOON,ioos:station:TCOON:003:1,2014-03-08T11:42:00Z,26.8015,-97.4706,17.8,1111122 
TCOON,ioos:station:TCOON:003:1,2014-03-08T12:00:00Z,26.8015,-97.4706,17.7,1111122 
TCOON,ioos:station:TCOON:003:1,2014-03-08T12:42:00Z,26.8015,-97.4706,17.6,1111122 
TCOON,ioos:station:TCOON:003:1,2014-03-08T13:00:00Z,26.8015,-97.4706,17.6,1111122 
TCOON,ioos:station:TCOON:003:1,2014-03-08T13:42:00Z,26.8015,-97.4706,18.3,1111122 
TCOON,ioos:station:TCOON:003:1,2014-03-08T14:00:00Z,26.8015,-97.4706,18.4,1111122 
TCOON,ioos:station:TCOON:003:1,2014-03-08T14:42:00Z,26.8015,-97.4706,18.9,1111122 
TCOON,ioos:station:TCOON:003:1,2014-03-08T15:00:00Z,26.8015,-97.4706,19.1,1111122 
TCOON,ioos:station:TCOON:003:1,2014-03-08T15:42:00Z,26.8015,-97.4706,19.3,1111122 
TCOON,ioos:station:TCOON:003:1,2014-03-08T16:00:00Z,26.8015,-97.4706,19.3,1111122 
TCOON,ioos:station:TCOON:003:1,2014-03-08T16:42:00Z,26.8015,-97.4706,19.8,1111122 